Location: Lourdes
(43.1000°N, 0.0500°W)
Time: 08:05:31
(UTC+00:00)

CORIOLIS - Pass Details

Date: 30 November 2020
Orbit: 817 x 839 km, 98.7° (Epoch: 25 January)

Event Time Altitude Azimuth Distance (km) Brightness Sun altitude
Rises 17:42:45 0° 171° (S) 3,358 7.4 -13.6°
Reaches altitude 10° 17:45:06 10° 173° (S) 2,432 6.7 -14.0°
Maximum altitude 17:50:28 71° 257° (WSW) 884 4.5 -14.9°
Drops below altitude 10° 17:55:55 10° 342° (NNW) 2,461 6.7 -15.9°
Sets 17:58:19 0° 345° (NNW) 3,401 7.4 -16.3°
